N-STAR C

Last updated on Nov. 19, 2019, 4:25 a.m. UTC

1 27461U 02035B   19321.66955605 -.00000305  00000-0  00000-0 0  9997
2 27461   6.2512  60.0627 0000825  28.5012 344.9377  1.00269867 63636
UTC
Height (km)
Latitude
Longitude
Inclination
Orbital Period
UTC large
Height (km)
Speed (km/s)
/
Latitude / Longitude
Inclination (degrees)
Orbital Period (minutes)
Azimuth
Elevation
Range (km)
Doppler Factor
iOS Compass Heading
iOS Angle

Next 30 passes for location: Hong Kong

Rise time Rise Azimuth (degrees) Set time Set Azimuth (degrees) Duration Max altitude (degrees)

No matching passes for this satellites